Madison, SD

6:21 AM CST on November 17, 2019 (GMT -0600)
Madison Municipal

Weather History for KMDS - September, 2019

Change the Weather History Date:

Friday, September 13, 2019

  Actual Average Record
Temperature  
Mean Temperature 57 °F -  
Max Temperature 64 °F 73 °F 84 °F (2017)
Min Temperature 50 °F 49 °F 35 °F (2014)
Degree Days  
Heating Degree Days 8    
Growing Degree Days 7 (Base 50)    
Moisture  
Dew Point 53 °F    
Average Humidity 95    
Maximum Humidity 100    
Minimum Humidity 73    
Precipitation  
Precipitation 0.00 in - - ()
Sea Level Pressure  
Sea Level Pressure 30.06 in    
Wind  
Wind Speed 15 mph ()    
Max Wind Speed 23 mph    
Max Gust Speed 31 mph    
Visibility 9.6 miles    
Events Fog    
Averages and records for this station are not official NWS values.
T = Trace of Precipitation, MM = Missing Value Source: Averaged Metar Reports

Daily Weather History Graph

Daily Weather History Graph

Search for Another Location

Airport or City:

Astronomy

Sep. 13, 2019 Rise Set
Actual Time 7:05 AM CDT 7:42 PM CDT
Civil Twilight 6:35 AM CDT 8:11 PM CDT
Nautical Twilight 6:01 AM CDT 8:46 PM CDT
Astronomical Twilight 5:25 AM CDT 9:21 PM CDT
Moon 7:59 PM CDT (9/13) 6:19 AM CDT (9/13)
Length of Visible Light 13h 35m
Length of Day
12h 37m
Full, 100% of the Moon is Illuminated
Sep 13
Full
Sep 13
Full
Sep 21
Last Quarter
Sep 28
New
Oct 5
First Quarter

Hourly Weather History & Observations

Time (CDT) Temp. Dew Point Humidity Pressure Visibility Wind Dir Wind Speed Gust Speed Precip Events Conditions
12:00 AM 55.4 °F 55.4 °F 100% 29.94 in 10.0 mi WNW 11.5 mph 23.0 mph N/A   Overcast
12:15 AM 53.6 °F 53.6 °F 100% 29.94 in 8.0 mi WNW 21.9 mph 27.6 mph N/A   Overcast
12:20 AM 53.6 °F 53.6 °F 100% 29.94 in 10.0 mi WNW 19.6 mph 27.6 mph N/A   Overcast
12:35 AM 53.6 °F 53.6 °F 100% 29.95 in 10.0 mi West 11.5 mph 26.5 mph N/A   Mostly Cloudy
12:55 AM 53.6 °F 53.6 °F 100% 29.95 in 10.0 mi West 20.7 mph 27.6 mph N/A   Overcast
1:00 AM 53.6 °F 53.6 °F 100% 29.95 in 10.0 mi West 21.9 mph 27.6 mph N/A   Overcast
1:15 AM 53.6 °F 53.6 °F 100% 29.96 in 10.0 mi WNW 20.7 mph 26.5 mph N/A   Overcast
1:20 AM 51.8 °F 51.8 °F 100% 29.96 in 10.0 mi WNW 12.7 mph 26.5 mph N/A   Overcast
1:35 AM 51.8 °F 51.8 °F 100% 29.97 in 10.0 mi WNW 21.9 mph 27.6 mph N/A   Overcast
1:40 AM 51.8 °F 51.8 °F 100% 29.97 in 10.0 mi WNW 16.1 mph 27.6 mph N/A   Overcast
2:15 AM 50.0 °F 50.0 °F 100% 29.98 in 10.0 mi WNW 19.6 mph 31.1 mph N/A   Overcast
2:35 AM 50.0 °F 50.0 °F 100% 29.97 in 10.0 mi West 17.3 mph 31.1 mph N/A   Overcast
2:55 AM 50.0 °F 50.0 °F 100% 29.97 in 10.0 mi WNW 20.7 mph 28.8 mph N/A   Overcast
3:00 AM 50.0 °F 50.0 °F 100% 29.97 in 10.0 mi WNW 19.6 mph 28.8 mph N/A   Overcast
3:15 AM 50.0 °F 50.0 °F 100% 29.98 in 10.0 mi West 13.8 mph 26.5 mph N/A   Overcast
3:35 AM 50.0 °F 50.0 °F 100% 29.98 in 10.0 mi WNW 17.3 mph 26.5 mph N/A   Overcast
3:40 AM 50.0 °F 50.0 °F 100% 29.98 in 10.0 mi WNW 15.0 mph 26.5 mph N/A   Overcast
3:55 AM 50.0 °F 50.0 °F 100% 29.98 in 10.0 mi WNW 23.0 mph 29.9 mph N/A   Overcast
4:00 AM 50.0 °F 50.0 °F 100% 29.98 in 10.0 mi WNW 19.6 mph 29.9 mph N/A   Mostly Cloudy
4:15 AM 50.0 °F 50.0 °F 100% 29.99 in 10.0 mi WNW 19.6 mph 29.9 mph N/A   Mostly Cloudy
4:35 AM 50.0 °F 50.0 °F 100% 29.99 in 10.0 mi WNW 18.4 mph 23.0 mph N/A   Overcast
4:55 AM 50.0 °F 50.0 °F 100% 30.00 in 10.0 mi WNW 20.7 mph 27.6 mph N/A   Overcast
5:15 AM 50.0 °F 50.0 °F 100% 30.00 in 10.0 mi WNW 20.7 mph 25.3 mph N/A   Overcast
5:35 AM 50.0 °F 50.0 °F 100% 30.00 in 10.0 mi WNW 20.7 mph 28.8 mph N/A   Overcast
5:40 AM 50.0 °F 50.0 °F 100% 30.00 in 10.0 mi WNW 20.7 mph 28.8 mph N/A   Overcast
5:55 AM 50.0 °F 50.0 °F 100% 30.01 in 10.0 mi WNW 19.6 mph 24.2 mph N/A   Overcast
6:00 AM 50.0 °F 50.0 °F 100% 30.01 in 10.0 mi WNW 20.7 mph 24.2 mph N/A   Overcast
6:15 AM 50.0 °F 50.0 °F 100% 30.02 in 10.0 mi WNW 18.4 mph 24.2 mph N/A   Overcast
6:35 AM 50.0 °F 50.0 °F 100% 30.03 in 10.0 mi WNW 20.7 mph 28.8 mph N/A   Overcast
6:40 AM 50.0 °F 50.0 °F 100% 30.03 in 10.0 mi WNW 19.6 mph 25.3 mph N/A   Overcast
6:55 AM 50.0 °F 50.0 °F 100% 30.03 in 10.0 mi WNW 18.4 mph 25.3 mph N/A   Overcast
7:15 AM 50.0 °F 50.0 °F 100% 30.04 in 10.0 mi WNW 17.3 mph 27.6 mph N/A   Overcast
7:20 AM 50.0 °F 50.0 °F 100% 30.04 in 10.0 mi WNW 18.4 mph 27.6 mph N/A   Overcast
7:35 AM 50.0 °F 50.0 °F 100% 30.05 in 10.0 mi WNW 20.7 mph 27.6 mph N/A   Overcast
7:55 AM 50.0 °F 50.0 °F 100% 30.06 in 10.0 mi WNW 20.7 mph 26.5 mph N/A   Overcast
8:00 AM 50.0 °F 50.0 °F 100% 30.06 in 10.0 mi WNW 16.1 mph 26.5 mph N/A   Overcast
8:15 AM 50.0 °F 50.0 °F 100% 30.07 in 10.0 mi WNW 18.4 mph 25.3 mph N/A   Overcast
8:20 AM 50.0 °F 50.0 °F 100% 30.07 in 10.0 mi WNW 16.1 mph 25.3 mph N/A   Overcast
8:35 AM 50.0 °F 50.0 °F 100% 30.07 in 10.0 mi WNW 20.7 mph 26.5 mph N/A   Overcast
8:55 AM 50.0 °F 50.0 °F 100% 30.07 in 10.0 mi WNW 21.9 mph 26.5 mph N/A   Overcast
9:00 AM 50.0 °F 50.0 °F 100% 30.08 in 10.0 mi NW 23.0 mph 28.8 mph N/A   Overcast
9:15 AM 50.0 °F 50.0 °F 100% 30.09 in 10.0 mi WNW 17.3 mph 24.2 mph N/A   Overcast
9:20 AM 50.0 °F 50.0 °F 100% 30.09 in 10.0 mi WNW 17.3 mph 24.2 mph N/A   Overcast
9:35 AM 50.0 °F 50.0 °F 100% 30.09 in 10.0 mi WNW 19.6 mph 24.2 mph N/A   Overcast
9:40 AM 50.0 °F 50.0 °F 100% 30.09 in 10.0 mi WNW 18.4 mph 25.3 mph N/A   Overcast
9:55 AM 51.8 °F 51.8 °F 100% 30.09 in 10.0 mi WNW 19.6 mph 25.3 mph N/A   Overcast
10:15 AM 53.6 °F 53.6 °F 100% 30.10 in 10.0 mi WNW 21.9 mph - N/A   Overcast
10:20 AM 53.6 °F 53.6 °F 100% 30.10 in 10.0 mi WNW 17.3 mph 26.5 mph N/A   Overcast
10:35 AM 53.6 °F 53.6 °F 100% 30.10 in 10.0 mi WNW 15.0 mph 24.2 mph N/A   Overcast
10:55 AM 53.6 °F 53.6 °F 100% 30.11 in 10.0 mi WNW 18.4 mph 24.2 mph N/A   Overcast
11:00 AM 53.6 °F 53.6 °F 100% 30.10 in 10.0 mi WNW 18.4 mph 23.0 mph N/A   Overcast
11:15 AM 53.6 °F 53.6 °F 100% 30.11 in 10.0 mi West 13.8 mph 20.7 mph N/A   Overcast
11:35 AM 53.6 °F 53.6 °F 100% 30.12 in 10.0 mi West 13.8 mph 23.0 mph N/A   Overcast
11:40 AM 53.6 °F 53.6 °F 100% 30.12 in 10.0 mi WNW 16.1 mph 20.7 mph N/A   Overcast
11:55 AM 53.6 °F 53.6 °F 100% 30.12 in 10.0 mi West 12.7 mph 21.9 mph N/A   Overcast
12:15 PM 53.6 °F 53.6 °F 100% 30.13 in 10.0 mi West 15.0 mph 23.0 mph N/A   Overcast
12:20 PM 55.4 °F 53.6 °F 94% 30.13 in 10.0 mi WNW 16.1 mph 23.0 mph N/A   Overcast
12:35 PM 55.4 °F 53.6 °F 94% 30.13 in 10.0 mi WNW 16.1 mph 21.9 mph N/A   Overcast
12:55 PM 55.4 °F 53.6 °F 94% 30.13 in 10.0 mi West 12.7 mph 18.4 mph N/A   Overcast
1:00 PM 55.4 °F 53.6 °F 94% 30.13 in 10.0 mi WNW 17.3 mph 23.0 mph N/A   Overcast
1:15 PM 57.2 °F 55.4 °F 94% 30.12 in 10.0 mi West 12.7 mph 18.4 mph N/A   Overcast
1:20 PM 57.2 °F 55.4 °F 94% 30.12 in 10.0 mi West 13.8 mph 19.6 mph N/A   Overcast
1:35 PM 59.0 °F 55.4 °F 88% 30.11 in 10.0 mi West 15.0 mph 21.9 mph N/A   Mostly Cloudy
1:40 PM 59.0 °F 55.4 °F 88% 30.11 in 10.0 mi WNW 13.8 mph 21.9 mph N/A   Mostly Cloudy
1:55 PM 57.2 °F 53.6 °F 88% 30.11 in 10.0 mi WNW 16.1 mph 20.7 mph N/A   Mostly Cloudy
2:15 PM 59.0 °F 55.4 °F 88% 30.11 in 10.0 mi WNW 15.0 mph 20.7 mph N/A   Overcast
2:35 PM 59.0 °F 53.6 °F 82% 30.11 in 10.0 mi WNW 16.1 mph 24.2 mph N/A   Overcast
2:40 PM 59.0 °F 55.4 °F 88% 30.11 in 10.0 mi NW 15.0 mph 24.2 mph N/A   Mostly Cloudy
2:55 PM 59.0 °F 53.6 °F 82% 30.11 in 10.0 mi West 12.7 mph 21.9 mph N/A   Overcast
3:00 PM 59.0 °F 55.4 °F 88% 30.11 in 10.0 mi WNW 15.0 mph 21.9 mph N/A   Overcast
3:15 PM 59.0 °F 55.4 °F 88% 30.10 in 10.0 mi WNW 13.8 mph 20.7 mph N/A   Overcast
3:20 PM 60.8 °F 55.4 °F 82% 30.10 in 10.0 mi WNW 15.0 mph - N/A   Overcast
3:35 PM 62.6 °F 55.4 °F 77% 30.10 in 10.0 mi West 16.1 mph 20.7 mph N/A   Overcast
3:40 PM 62.6 °F 55.4 °F 77% 30.10 in 10.0 mi NW 13.8 mph 20.7 mph N/A   Overcast
3:55 PM 60.8 °F 57.2 °F 88% 30.10 in 10.0 mi WNW 10.4 mph 18.4 mph N/A   Mostly Cloudy
4:00 PM 62.6 °F 55.4 °F 77% 30.09 in 10.0 mi WNW 16.1 mph 21.9 mph N/A   Scattered Clouds
4:15 PM 62.6 °F 55.4 °F 77% 30.09 in 10.0 mi West 15.0 mph 20.7 mph N/A   Partly Cloudy
4:20 PM 62.6 °F 55.4 °F 77% 30.09 in 10.0 mi WNW 15.0 mph 20.7 mph N/A   Partly Cloudy
4:35 PM 62.6 °F 55.4 °F 77% 30.09 in 10.0 mi WNW 15.0 mph 21.9 mph N/A   Scattered Clouds
4:40 PM 62.6 °F 55.4 °F 77% 30.09 in 10.0 mi WNW 13.8 mph 21.9 mph N/A   Scattered Clouds
4:55 PM 64.4 °F 55.4 °F 73% 30.09 in 10.0 mi WNW 15.0 mph 19.6 mph N/A   Scattered Clouds
5:15 PM 64.4 °F 55.4 °F 73% 30.09 in 10.0 mi WNW 12.7 mph 19.6 mph N/A   Scattered Clouds
5:20 PM 64.4 °F 57.2 °F 77% 30.09 in 10.0 mi WNW 11.5 mph 19.6 mph N/A   Scattered Clouds
5:35 PM 62.6 °F 55.4 °F 77% 30.08 in 10.0 mi WNW 12.7 mph - N/A   Partly Cloudy
5:55 PM 62.6 °F 55.4 °F 77% 30.08 in 10.0 mi WNW 10.4 mph 17.3 mph N/A   Clear
6:00 PM 62.6 °F 57.2 °F 82% 30.08 in 10.0 mi West 9.2 mph - N/A   Clear
6:15 PM 62.6 °F 57.2 °F 82% 30.08 in 10.0 mi WNW 9.2 mph - N/A   Clear
6:20 PM 62.6 °F 57.2 °F 82% 30.08 in 10.0 mi WNW 9.2 mph - N/A   Clear
6:35 PM 62.6 °F 57.2 °F 82% 30.09 in 10.0 mi West 6.9 mph - N/A   Clear
6:40 PM 62.6 °F 57.2 °F 82% 30.09 in 10.0 mi West 5.8 mph - N/A   Clear
6:55 PM 62.6 °F 57.2 °F 82% 30.08 in 10.0 mi West 5.8 mph - N/A   Clear
7:15 PM 60.8 °F 59.0 °F 94% 30.08 in 10.0 mi West 4.6 mph - N/A   Clear
7:35 PM 59.0 °F 59.0 °F 100% 30.09 in 10.0 mi WNW 4.6 mph - N/A   Clear
7:40 PM 59.0 °F 59.0 °F 100% 30.09 in 10.0 mi West 4.6 mph - N/A   Clear
7:55 PM 59.0 °F 59.0 °F 100% 30.09 in 10.0 mi WSW 3.5 mph - N/A   Clear
8:00 PM 59.0 °F 59.0 °F 100% 30.09 in 10.0 mi WSW 3.5 mph - N/A   Clear
8:15 PM 57.2 °F 57.2 °F 100% 30.09 in 10.0 mi Calm Calm - N/A   Clear
8:35 PM 57.2 °F 57.2 °F 100% 30.09 in 10.0 mi Calm Calm - N/A   Clear
8:40 PM 55.4 °F 55.4 °F 100% 30.09 in 10.0 mi Calm Calm - N/A   Clear
8:55 PM 55.4 °F 55.4 °F 100% 30.09 in 10.0 mi Calm Calm - N/A   Clear
9:15 PM 53.6 °F 53.6 °F 100% 30.09 in 10.0 mi Calm Calm - N/A   Clear
9:35 PM 53.6 °F 53.6 °F 100% 30.10 in 10.0 mi SSE 3.5 mph - N/A   Clear
9:55 PM 53.6 °F 53.6 °F 100% 30.10 in 10.0 mi SE 3.5 mph - N/A   Clear
10:00 PM 53.6 °F 53.6 °F 100% 30.10 in 10.0 mi South 3.5 mph - N/A   Clear
10:15 PM 53.6 °F 53.6 °F 100% 30.10 in 10.0 mi Calm Calm - N/A   Clear
10:20 PM 53.6 °F 53.6 °F 100% 30.10 in 10.0 mi Calm Calm - N/A   Clear
10:35 PM 53.6 °F 53.6 °F 100% 30.10 in 1.2 mi Calm Calm - N/A   Clear
10:40 PM 53.6 °F 53.6 °F 100% 30.10 in 0.8 mi SSE 3.5 mph - N/A   Mist
11:15 PM 50.0 °F 50.0 °F 100% 30.11 in 0.8 mi South 4.6 mph - N/A   Mist
11:20 PM 50.0 °F 50.0 °F 100% 30.11 in 0.5 mi South 6.9 mph - N/A Fog Fog
11:35 PM 51.8 °F 51.8 °F 100% 30.11 in 5.0 mi South 5.8 mph - N/A   Clear
11:55 PM 50.0 °F 50.0 °F 100% 30.11 in 10.0 mi South 8.1 mph - N/A   Clear